Terug naar catalogus

LIME

ActiefAmateurradioSSO
NORAD 62648·PAYLOAD·🇺🇸 United States

Gelanceerd Jan 14, 2025 vanaf Vandenberg Space Force Base

Loading…

Volgende Passages (komende 24 uur)

TLE

VersSource: Space-Track

Epoch: Sep 14, 2026, 11:07 UTC

1 62648U 25009AR  26257.46327619  .00008305  00000-0  26720-3 0  9998
2 62648  97.3905 339.5369 0002755  61.8653 298.2867 15.32486611 92636

Volg LIME in realtime met AllMySat

Download on the App Store